Hourly Data Report for June 11, 2019

TORONTO CITY
ONTARIO
Current Station Operator: ECCC - MSC

43°40'00.000" N
79°24'00.000" W
112.50 m
6158355
71508
XTO

Download Data

Hourly Data (June 2019)
Hourly Data Report for June 11, 2019
TIME
LST
Temp Definition
°C
Dew Point Definition
°C
Rel Hum Definition
%
Precip. Amount Definition
mm

Wind Dir Definition
10's deg

Wind Spd Definition
km/h
Visibility Definition
km
Stn Press Definition
kPa
Hmdx Definition


Wind Chill Definition


Weather Definition


00:00 13.1 9.1 77 0.0 LegendMM LegendMM   99.90     LegendNANA
01:00 12.9 8.9 77 0.0 LegendMM LegendMM   99.96     LegendNANA
02:00 12.7 8.9 78 0.0 LegendMM LegendMM   100.03     LegendNANA
03:00 13.2 8.8 75 0.0 LegendMM LegendMM   100.11     LegendNANA
04:00 13.6 8.2 70 0.0 LegendMM LegendMM   100.20     LegendNANA
05:00 12.3 8.0 75 0.0 LegendMM LegendMM   100.30     LegendNANA
06:00 12.4 7.9 74 0.0 LegendMM LegendMM   100.41     LegendNANA
07:00 13.9 7.3 65 0.0 LegendMM LegendMM   100.51     LegendNANA
08:00 15.5 7.1 57 0.2 LegendMM LegendMM   100.57     LegendNANA
09:00 17.5 8.1 54 0.0 LegendMM LegendMM   100.60     LegendNANA
10:00 19.3 6.8 44 0.0 LegendMM LegendMM   100.59     LegendNANA
11:00 20.7 6.0 38 0.0 LegendMM LegendMM   100.58     LegendNANA
12:00 21.2 4.9 34 0.0 LegendMM LegendMM   100.57     LegendNANA
13:00 20.9 3.9 33 0.0 LegendMM LegendMM   100.58     LegendNANA
14:00 22.3 6.6 36 0.0 LegendMM LegendMM   100.56     LegendNANA
15:00 22.7 3.5 28 0.0 LegendMM LegendMM   100.57     LegendNANA
16:00 22.6 2.9 27 0.0 LegendMM LegendMM   100.55     LegendNANA
17:00 22.1 2.4 27 0.0 LegendMM LegendMM   100.57     LegendNANA
18:00 21.2 1.9 28 0.0 LegendMM LegendMM   100.56     LegendNANA
19:00 20.3 0.7 27 0.0 LegendMM LegendMM   100.57     LegendNANA
20:00 18.5 -0.3 28 0.0 LegendMM LegendMM   100.60     LegendNANA
21:00 16.7 0.7 34 0.0 LegendMM LegendMM   100.60     LegendNANA
22:00 15.4 3.0 43 0.0 LegendMM LegendMM   100.63     LegendNANA
23:00 14.2 4.5 52 0.0 LegendMM LegendMM   100.64     LegendNANA

Notes on Data Quality.

Legend

  • E = Estimated
  • M = Missing
  • NA = Not Available*
  • [empty] = Indicates an unobserved value
Date modified: